Skip Page Navigation
NASA JPL Caltech
NASA Logo - Jet Propulsion Laboratory + View the NASA Portal
+ Near-Earth Object (NEO) Program
Search JPL
JPL Home Earth Solar System Stars & Galaxies Technology
JPL Solar System Dynamics
BODIES ORBITS EPHEMERIDES TOOLS PHYSICAL DATA DISCOVERY FAQ SITE MAP
JPL Small-Body Database Browser
Search: [ help ]  
(2012 QE50)
Classification: Apollo [NEO, PHA]          SPK-ID: 3608326
Ephemeris | Orbit Diagram | Orbital Elements | Physical Parameters | Close-Approach Data ]

[ hide orbit diagram ]
Orbit Diagram
Note: Make sure you have Java enabled on your browser to see the applet. This applet is provided as a 3D orbit visualization tool. The applet was implemented using 2-body methods, and hence should not be used for determining accurate long-term trajectories (over several years or decades) or planetary encounter circumstances. For accurate long-term ephemerides, please instead use our Horizons system.
Orbit Viewer

Additional Notes: the orbits shown in the applet are color coded. The planets are white lines, and the asteroid/comet is a blue line. The bright white line indicates the portion of the orbit that is above the ecliptic plane, and the darker portion is below the ecliptic plane. Likewise for the asteroid/comet orbit, the light blue indicates the portion above the ecliptic plane, and the dark blue the portion below the ecliptic plane.

Orbit Viewer applet originally written and kindly provided by Osamu Ajiki (AstroArts), and further modified by Ron Baalke (JPL).


Orbital Elements at Epoch 2456400.5 (2013-Apr-18.0) TDB
Reference: JPL 58 (heliocentric ecliptic J2000)
 Element Value Uncertainty (1-sigma)   Units 
e .4409017340360716 4.3837e-06  
a 1.732889911919647 1.3397e-05 AU
q .9688557448606592 1.3813e-07 AU
i 11.91021913572095 8.406e-05 deg
node 194.0107795239587 2.9191e-05 deg
peri 224.7405985790141 3.1267e-05 deg
M 68.29419635539695 0.00076368 deg
tp 2456242.434829114742
(2012-Nov-10.93482911)
6.7651e-05 JED
period 833.2107932359633
2.28
0.0096624
2.645e-05
d
yr
n .4320635341290507 5.0105e-06 deg/d
Q 2.496924078978635 1.9304e-05 AU
  Orbit Determination Parameters
   # obs. used (total)      674  
   data-arc span      198 days  
   first obs. used      2012-08-28  
   last obs. used      2013-03-14  
   planetary ephem.      DE405  
   SB-pert. ephem.      SB405-CPV-2  
   condition code      3  
   fit RMS      .32322  
   data source      ORB  
   producer      Otto Matic  
   solution date      2013-Mar-15 01:50:26  

Additional Information
 Earth MOID = .0450176 AU 
 T_jup = 4.016 
[ show covariance matrix ]

Ephemeris | Orbit Diagram | Orbital Elements | Physical Parameters | Close-Approach Data ]

Physical Parameter Table
Parameter Symbol Value Units Sigma Reference Notes
absolute magnitude H 18.87 mag .53302 36 autocmod 2.5b

[ show close-approach data ]
Ephemeris | Orbit Diagram | Orbital Elements | Physical Parameters | Close-Approach Data ]
ABOUT SSD CREDITS/AWARDS PRIVACY/COPYRIGHT GLOSSARY LINKS
FirstGov 2013-May-21 04:09 UT
(server date/time)  
NASA Home Page
Site Manager:   Donald K. Yeomans
Webmaster  Alan B. Chamberlin